Location: Newark
(44.3681°N, 100.3364°W)
Time: 06:08:17
(UTC+00:00)

Explorer 7 - Pass Details

Date: 23 February 2020
Orbit: 485 x 679 km, 50.3° (Epoch: 07 April)

Event Time Altitude Azimuth Distance (km) Brightness Sun altitude
Rises 00:34:58 0° 295° (WNW) 2,753 11.4 -3.5°
Reaches altitude 10° 00:37:22 10° 289° (WNW) 1,820 10.6 -4.0°
Maximum altitude 00:41:16 42° 218° (SW) 757 8.0 -4.6°
Drops below altitude 10° 00:44:56 10° 146° (SSE) 1,716 9.1 -5.3°
Sets 00:47:08 0° 140° (SE) 2,575 9.9 -5.7°
